User: anonymous   Login
Location: Unspecified
(0.0000°N, 0.0000°E)
Time: 02:23:27
(UTC+01:00)
Language:

Resurs 1-3 - Orbit

View from above orbital plane
View from above orbital plane
View from above satellite
View from above satellite

Ground track
Ground track

The orbit data is extracted from the following two-line orbital elements,

1 23342U 94074A   16039.52937736  .00000373  00000-0  57568-4 0  9997
2 23342  98.1331  67.7007 0000743 103.5725 256.5569 14.79112905144652
Epoch (UTC): 08 February 2016 12:42:18
Eccentricity: 0.0000743
inclination: 98.1331°
perigee height: 631 km
apogee height: 632 km
right ascension of ascending node: 67.7007°
argument of perigee: 103.5725°
revolutions per day: 14.79112905
mean anomaly at epoch: 256.5569°
orbit number at epoch: 14465

The dashed part of the orbit path shows where the satellite is in the earth's shadow,  

DLR